Flag for Germany Weather past 2 weeks in Mainz, Rhineland-Palatinate, Germany

Now
60 °F

Passing clouds.


Feels Like: 60 °F
Forecast: 53 / 62 °F
Wind: 5 mph from West

Location: Wiesbaden Airport

Current Time: Aug 22, 2014 at 10:30:47 PM

Latest Report: Aug 22, 2014 at 9:58 PM


Visibility: N/A

Pressure: 29.93 "Hg

Humidity: 62%

Dew point: 47 °F

Location of MainzLocation

Historic Weather in Mainz — Graph

°F

Mainz temperature yesterday

Maximum temperature yesterday: 67 °F (at 6:58 PM)
Minimum temperature yesterday: 46 °F (at 4:58 AM)
Average temperature yesterday: 57 °F

Past Weeks' High & Low Weather Summary

 TemperatureHumidityPressure
High81 °F (Aug 8, 2:58 PM)100% (Aug 10, 6:58 PM)30.12 "Hg (Aug 10, 6:58 PM)
Low45 °F (Aug 22, 6:58 AM)41% (Aug 12, 6:58 PM)29.66 "Hg (Aug 13, 3:58 PM)
Average62 °F75%29.91 "Hg
* Reported Aug 7 8:58 PM — Aug 22 8:58 PM, Mainz, Weather by CustomWeather, © 2014

Note: Actual official high and low records may vary slightly from our data, if they occured in-between our weather recording intervals... More about our weather records

Advertising

Mainz weather history for previous 24 hours

 ConditionsComfort  
Time TempWeatherWind HumidityBarometerVisibility
8:58 PM
Aug 22
63 °FScattered clouds.2 mph56%29.92 "HgN/A
7:58 PM65 °FPartly sunny.6 mph52%29.91 "HgN/A
6:58 PM66 °FOvercast.10 mph49%29.93 "HgN/A
5:58 PM66 °FOvercast.10 mph47%29.92 "HgN/A
4:58 PM66 °FMostly cloudy.12 mph46%29.93 "HgN/A
3:58 PM68 °FPartly sunny.12 mph43%29.94 "HgN/A
2:58 PM66 °FOvercast.8 mph49%29.96 "HgN/A
1:58 PM67 °FPartly sunny.8 mph49%29.96 "HgN/A
12:58 PM66 °FPartly sunny.7 mph52%29.98 "HgN/A
11:58 AM63 °FOvercast.1 mph59%29.98 "HgN/A
10:58 AM58 °FOvercast.2 mph69%30.01 "HgN/A
9:58 AM55 °FPartly sunny.3 mph72%30.01 "HgN/A
8:58 AM54 °FScattered clouds.No wind77%29.99 "HgN/A
7:58 AM50 °FPassing clouds.No wind87%30.00 "HgN/A
6:58 AM45 °FClear.No wind93%30.01 "HgN/A
5:58 AM45 °FClear.No wind92%30.00 "HgN/A
4:58 AM45 °FClear.No wind90%30.00 "HgN/A
3:58 AM46 °FClear.1 mph87%30.01 "HgN/A
2:58 AM48 °FClear.3 mph87%30.01 "HgN/A
1:58 AM48 °FClear.No wind87%30.02 "HgN/A
12:58 AM50 °FClear.No wind82%30.02 "HgN/A
11:58 PM
Aug 21
50 °FClear.2 mph84%30.02 "HgN/A
10:58 PM54 °FClear.5 mph77%30.02 "HgN/A
Weather by CustomWeather, © 2014

See weather overviewHow to use our weather pages